Regional Weather Roundup
Issued by NWS Wakefield, VA

Home | Current Version | Previous Version | Text Only | Print | Product List | Glossary Off
Versions: 1 2 3 4 5 6 7 8 9 10 11 12 13 14 15 16 17 18 19 20 21 22 23 24 25 26 27

000
ASUS41 KAKQ 271515
RWRAKQ

REGIONAL WEATHER ROUNDUP
NATIONAL WEATHER SERVICE WAKEFIELD VA
1100 AM EDT THU JUL 27 2017

Note: "fair" indicates few or no clouds below 12,000 feet with no
significant weather and/or obstructions to visibility. * = Denotes
station may not report precipitation (e.g., rain,snow,etc.),
thunder or fog.

VAZ042-051-052>054-056-271600-
NORTHERN VIRGINIA

CITY           SKY/WX    TMP DP  RH WIND       PRES   REMARKS
WASH NATIONAL  CLOUDY    79  72  79 S10       29.99F
DULLES         PTSUNNY   78  69  73 SW8       29.99F
FORT BELVOIR   MOSUNNY   80  69  71 S8        29.99F
QUANTICO       PTSUNNY   80  73  79 S9        30.00F
FREDERICKSBRG* MOSUNNY   81  72  72 S8        29.99F
STAFFORD*      MOSUNNY   79  72  77 S3        30.03F
WARRENTON      MOSUNNY   81  68  64 S6        29.99F
CULPEPER*      PTSUNNY   81  72  73 S6        30.00F
MANASSAS*      MOSUNNY   80  71  74 VRB5      29.99F
LEESBURG*      PTSUNNY   79  72  78 S7        30.00F
WINCHESTER     CLOUDY    77  68  73 S3        29.99F
FRONT ROYAL*   PTSUNNY   82  70  65 SW7       29.98F
LURAY*         CLOUDY    81  70  69 SW6       30.00F
$$

VAZ048-049-060>072-079>083-271600-
CENTRAL AND SOUTH CENTRAL VIRGINIA

CITY           SKY/WX    TMP DP  RH WIND       PRES   REMARKS
RICHMOND       CLOUDY    81  68  64 SW14      30.02F
CHESTERFIELD*  FAIR      82  69  64 SW9       30.03
PETERSBURG*    MOSUNNY   82  63  52 CALM      30.03F
HANOVER        CLOUDY    81  68  64 SW9       30.02F
TAPPAHANNOCK*  CLOUDY    82  62  49 S8        30.02F
QUINTON*       FAIR      80  68  65 SW5       30.02F
CHARLOTTSVILLE SUNNY     82  70  66 SW9       30.00F
GORDONSVILLE*  MOSUNNY   82  72  71 S8        29.99F
ORANGE*        MOSUNNY   81  70  69 W7        30.00S
LOUISA*        MOSUNNY   82  70  65 S8        30.00F
BUMPASS*       FAIR      81  72  73 S3        30.00F
FARMVILLE*     MOSUNNY   81  67  61 SW10      30.01F
CREWE*         FAIR      83  63  50 SW6G16    30.02F
FORT PICKETT*  FAIR     N/A N/A N/A SW15      30.03F
CHASE CITY*    FAIR      83  69  62 S6        30.04F
CLARKSVILLE*   FAIR      82  68  61 SW10G16   30.04F
SOUTH HILL*    MOSUNNY   83  67  58 SW13G20   30.10F
LAWRENCEVILLE* FAIR      84  64  51 SW10G20   30.04F
EMPORIA*       MOSUNNY   81  68  65 SW12      30.06F
$$

VAZ088>098-271600-
SOUTHEAST VIRGINIA

CITY           SKY/WX    TMP DP  RH WIND       PRES   REMARKS
NORFOLK        CLOUDY    81  65  58 SW10      30.05F
VIRGINIA BEACH CLOUDY    80  67  64 SW7       30.04F
NORFOLK NAVAL  CLOUDY    79  66  64 SW6       30.06F
WEST POINT*    MOSUNNY   83  64  52 SW5       30.04F
SALUDA*        FAIR      80  69  67 S8        30.03S
NEWPORT NEWS   CLOUDY    79  66  64 SW8       30.04F
LANGLEY AFB    PTSUNNY   80  66  62 SW10G20   30.04F
FORT EUSTIS    CLOUDY    81  68  63 SW6       30.02F
WILLIAMSBURG*  PTSUNNY   82  66  57 S9        30.05S
HR EXEC AP*    PTSUNNY   81  68  65 SW8       30.03F
FRANKLIN*      PTSUNNY   81  68  65 S8        30.05F
US460-WAKEFLD  MOSUNNY   81  69  67 SW8       30.04F
$$

VAZ020-022-025-037-045-271600-
WEST CENTRAL AND SOUTHWEST VIRGINIA

CITY           SKY/WX    TMP DP  RH WIND       PRES   REMARKS
STAUNTON*      MOSUNNY   81  67  61 SW5       30.03F
WAYNESBORO*    SUNNY     80  70  72 SW3       30.03F
HOT SPRINGS VA PTSUNNY   72  61  68 W9        30.17S
LYNCHBURG      CLOUDY    79  71  76 SW9       30.04F
DANVILLE       CLOUDY    81  75  82 SW12      30.04F
SOUTH BOSTON*  PTSUNNY   84  70  62 S9G16     30.03F
MARTINSVILLE   CLOUDY    79  71  75 SW3       30.08S
ROANOKE        MOSUNNY   83  70  64 SW10      30.05F
BLACKSBURG     MOSUNNY   79  68  69 S5        30.12F
DUBLIN*        PTSUNNY   80  64  57 SW7       30.11S
MARION*        CLOUDY    79  67  67 W10       30.15F
HILLSVILLE*    MOSUNNY   77  65  64 SW3       30.12F
RICHLANDS*     PTSUNNY   74  66  75 SW8       30.14R
WISE*          CLOUDY    73  72  94 SW14      30.13F
ABINGDON*      CLOUDY    77  71  81 W8        30.12S
$$

MDZ021>025-VAZ099-100-271600-
SOUTHERN MARYLAND AND THE DELMARVA PENINSULA

CITY           SKY/WX    TMP DP  RH WIND       PRES   REMARKS
PATUXENT RIVER PTSUNNY   80  71  74 SW10      30.01F
BAY BRIDGE APT CLOUDY    81  70  69 SW9       30.00F
LEONARDTOWN    MOSUNNY   79  68  69 SW8       30.02F
DOVER          CLOUDY    78  78 100 S10       29.99F
GEORGETOWN     PTSUNNY   79  69  71 S12       30.03F
EASTON         PTSUNNY   81  70  69 SW12G17   30.04F
CAMBRIDGE      NOT AVBL
SALISBURY      PTSUNNY   79  71  76 S12       30.02F
OCEAN CITY     MOSUNNY   75  69  81 S9        30.04F
WALLOPS ISLAND CLOUDY    78  72  81 S14       30.04F
ACCOMACK*      CLOUDY    81  65  58 SW8       30.04S
$$

NCZ012>017-030>032-271600-
NORTH CENTRAL AND EASTERN NORTH CAROLINA

CITY           SKY/WX    TMP DP  RH WIND       PRES   REMARKS
ROANOKE RAPIDS FAIR      81  68  65 SW8       30.06F
RALEIGH        PTSUNNY   85  67  54 SW14      30.07F
ELIZABETH CITY MOSUNNY   80  72  76 SW9       30.06F
AHOSKIE*         N/A     79  71  77 S3        30.06F
EDENTON*       MOSUNNY   83  68  58 CALM      30.07F
CURRITUCK*     MOSUNNY   82  68  62 SW8       30.07S
KILL DEVIL HLS MOSUNNY   80  67  62 CALM      30.05F
MANTEO         MOSUNNY   81  69  65 SW5       30.07F
CAPE HATTERAS  SUNNY     82  68  62 S3        30.07F
TARBORO*       NOT AVBL
GOLDSBORO      MOSUNNY   86  71  61 W9        30.06S
WASHINGTON     SUNNY     83  70  65 S5        30.07F
GREENVILLE     MOSUNNY   82  72  69 SW5       30.08F
NEW BERN       SUNNY     85  69  58 S6        30.08F
WILMINGTON     SUNNY     85  70  60 SE6       30.07F
$$

VAZ048-271600-
ELSEWHERE

CITY           SKY/WX    TMP DP  RH WIND       PRES   REMARKS
HARRISBURG PA  CLOUDY    74  69  85 SE5       29.98F
BALTIMORE      PTSUNNY   79  70  74 VRB5      29.99F
ANNAPOLIS      PTSUNNY   79  73  82 VRB5      29.99F
ANDREWS AFB    CLOUDY    79  70  72 S6        29.99F
PHILADELPHIA   CLOUDY    77  68  73 SW12      30.01F
HENDERSON NC   MOSUNNY   81  64  56 SW12      30.06F
GREENSBORO     CLOUDY    82  73  74 SW12G21   30.07F
ROCKY MOUNT    MOSUNNY   83  72  69 SW9       30.07F
$$

VAZ100-271600-
MARINE

STATION/POSITION TIME  TEMP    WIND        PRES    WAVE   SWELL
                       AIR SEA DIR/SP/G            HT/PER HT/PER
                 (UTC) (F)     (DEG/KT/KT) (MB)    (FT/S) (FT/S)
BRANDYWINE LGT   1436   74     190/ 13/ 15 1017.0F
CAPE MAY NJ      1448   74 75  200/ 11/ 14 1016.3F
LEWES DE         1448   77 74  190/  9/ 12 1016.3F
15NM E FENWICK I 1450   75 77  200/ 12/ 14 1017.6F   2/ 6   2/ 6
OCEAN-CITY-INLET 1448   73 73  200/  7/  9 1017.6F
WACHAPREAGUE VA  1448   77 78  160/ 10/ 13 1017.1F
THOMAS POINT MD  1500   76 81  190/ 11/ 12   N/A
GOOSES REEF MD   1500   78 82  240/  8/ 10 1016.8    1/ 2
COVE POINT MD    1448   78     230/ 10/ 12 1016.8F
SOLOMONS ISLAND  1448   80 83  220/  7/ 12   N/A
BISHOPS HEAD MD  1448   78 78  210/  9/ 11 1016.8F
PINEY POINT MD   1448          230/  4/  6   N/A
CAMBRIDGE MD     1448   80 84              1017.0F
LEWISETTA VA     1448   79 82  250/ 12/ 15 1016.1F
RAPPAHANNOCK LGT 1448          190/ 13/ 17 1017.5F
STINGRAY PT      1450   80     240/ 14/ 16 1017.2F
YORK RVR RNG VA  1448   79     230/ 11/ 12 1017.4F
YORKTOWN VA      1448   78 82  230/ 11/ 14 1016.7F
JAMESTOWN VA     1500      85  230/  6/ 10   N/A     0
DOMINION TERM VA 1448   78     200/  6/  7 1017.5F
KIPTOPEKE VA     1436      75  180/  8/  9   N/A
CHES BAY BRIDGE  1448   78 73  230/ 10/ 12 1017.3F
CAPE HENRY VA    1448   79     200/  6/  9   N/A
WILLOUBY STN VA  1448   78     220/  9/ 10 1017.4F
S CRANEY ISL VA  1448   78     220/  5/ 10 1017.4F
CAPE HENRY BUOY  1500      73                N/A     2/ 6
1ST LANDING BUOY 1500   79 76              1017.4    1/ 4
64NM E OF VA BCH 1450   76 78  190/  2/  2 1018.6F   3/ 8   3/ 8
DUCK PIER NC     1448   79 70  180/  5/ 10 1017.5F
44100 DUCK FRF   1405      74                N/A     3/ 7
44056 DUCK FRF   1500      74                N/A     3/ 8
OREGON INLET NC  1436   79 77  200/  4/  6 1018.2F
HATTERAS NC      1436   81 78  140/  3/  5 1018.3S
DIAMOND SHLS NC  1450   82 85   CALM  /  2 1018.1F   3/ 8   3/ 8
CAPE LOOKOUT NC  1400   82     110/  2/  3 1018.0F
$$




USA.gov is the U.S. government's official web portal to all federal, state and local government web resources and services.